Temp
16 16 16 16 17 17 17 17 17 17 17 17 18 18 19 19 19 20 20 21 22 22 22 22 22 23 24 26 26 27 30 30 30 30 30 28 29 25 24 24 21 20 20 17 17
16 16 16 16 17 17 17 17 18 17 17 18 18 18 19 19 20 19 21 22 22 22 22 23 24 24 26 26 26 28 30 30 31 31 31 29 29 26 25 23 21 18 18 17 18
16 16 16 16 16 17 17 17 18 18 18 18 18 18 19 20 20 23 22 22 22 22 22 23 24 25 27 27 27 28 29 30 29 29 30 29 27 25 27 25 22 17 16 16 15
16 16 16 16 17 17 17 17 18 18 18 18 18 19 19 20 25 22 22 22 22 22 21 23 24 25 27 27 27 28 28 28 29 28 28 29 26 24 26 23 18 16 16 16 15
15 16 16 16 17 17 17 18 18 18 18 18 18 19 19 20 23 22 22 22 22 21 22 24 25 26 28 28 27 28 28 27 27 27 28 27 26 21 19 18 16 15 14 15 15
16 16 16 16 17 17 17 18 18 19 19 19 19 19 18 23 22 22 22 22 21 21 23 24 26 26 27 28 28 27 27 27 26 27 27 26 21 22 16 18 17 16 14 14 14
15 16 16 17 17 17 18 18 19 19 19 19 19 19 18 23 22 22 22 21 21 22 23 23 24 25 26 27 26 26 27 26 26 26 26 25 24 20 16 18 17 16 15 14 14
15 16 16 17 17 17 18 18 19 19 19 19 19 19 21 22 22 22 22 22 22 21 22 22 23 25 26 26 27 28 28 28 26 26 25 26 25 16 16 18 18 16 16 15 14
15 15 16 16 17 18 18 19 19 19 19 19 18 18 23 22 22 22 22 23 22 22 21 22 23 26 26 28 28 28 28 29 26 26 26 27 23 16 16 18 17 17 16 15 14
15 15 16 16 17 18 18 19 19 19 19 18 18 18 22 24 23 22 22 22 23 22 23 23 25 27 28 28 28 28 28 28 28 26 27 27 23 17 16 17 18 17 16 15 14
15 15 16 16 17 17 18 18 17 17 16 22 23 23 23 23 22 22 22 22 23 24 26 25 26 27 28 28 28 29 29 28 27 24 26 26 20 18 16 17 17 18 16 15 14
14 15 16 16 17 17 17 17 18 16 21 21 21 21 21 22 23 23 22 24 24 26 26 26 26 28 28 28 27 27 28 27 24 24 26 24 21 18 17 16 17 17 17 15 13
14 15 16 17 17 17 17 17 18 17 20 23 22 21 22 21 24 24 23 25 25 26 26 27 27 27 27 26 26 27 28 26 26 23 24 23 22 20 18 17 18 17 17 15 14
14 15 16 17 17 17 17 18 17 17 22 25 23 22 22 23 24 25 24 25 26 26 27 27 28 26 27 27 28 27 28 27 24 25 26 24 27 22 21 18 18 18 17 16 14
14 15 15 16 16 17 17 17 17 17 22 24 24 22 23 25 25 24 24 25 26 26 26 27 27 26 27 28 28 27 27 26 26 26 25 24 25 25 22 20 20 19 17 16 15
14 15 16 16 17 17 18 17 17 21 21 25 24 24 24 25 26 24 24 24 26 26 26 27 26 28 28 27 28 26 26 26 26 27 26 27 26 26 24 24 23 21 18 16 15
15 15 16 17 15 17 17 17 21 22 24 24 25 25 26 25 26 26 25 25 25 24 25 26 27 27 27 26 27 27 26 26 25 26 25 25 25 27 25 23 24 24 19 17 15
15 16 17 17 17 17 16 20 20 23 24 24 24 25 25 26 26 26 26 25 26 26 27 26 25 26 27 28 27 27 27 27 24 25 26 24 25 26 23 20 20 21 20 17 15
15 16 15 15 15 16 17 20 21 23 23 23 24 24 24 26 26 26 26 26 26 26 26 26 26 26 26 27 28 26 26 26 25 25 25 26 26 25 23 22 20 20 19 17 15
15 15 13 15 15 14 19 19 22 22 23 23 23 24 25 25 24 25 25 26 26 27 27 26 25 26 25 26 25 27 26 25 26 23 23 25 25 25 24 24 22 21 19 18 16
14 15 13 14 14 16 19 21 22 22 21 22 23 23 23 25 25 25 26 26 27 26 27 26 26 24 25 26 26 25 26 25 25 25 24 23 25 26 25 25 24 23 20 18 16
11 18 13 13 17 19 20 21 19 21 22 22 22 22 22 23 24 25 25 26 25 26 25 26 25 25 25 24 24 26 26 26 24 23 24 23 23 25 25 24 23 23 20 19 17
10 13 13 13 18 20 20 20 20 21 22 22 22 23 23 22 22 25 26 24 23 25 26 24 25 23 23 23 24 25 25 25 24 24 23 23 24 25 24 23 22 22 20 18 16
9 16 15 15 14 15 17 19 20 20 21 21 22 22 22 22 23 23 25 22 22 24 20 24 25 24 24 25 26 24 24 24 24 22 24 24 24 25 24 23 22 21 19 17 15
10 12 8 15 17 14 15 17 19 19 20 20 21 22 22 21 23 23 24 22 21 19 22 23 24 25 26 26 26 25 25 24 23 24 23 24 24 25 24 24 22 20 18 16 15
7 6 7 11 12 14 14 17 16 17 18 20 19 19 20 21 23 23 24 23 23 21 22 22 24 24 23 24 25 24 24 24 24 24 23 23 23 24 21 20 20 18 17 16 15
3 3 2 12 13 15 15 13 15 15 17 17 16 17 20 19 16 17 21 22 23 23 22 22 22 22 23 23 23 22 23 23 24 23 23 22 23 22 20 19 18 17 16 16 15
Height
1547 1544 1542 1539 1537 1535 1532 1530 1528 1526 1524 1522 1520 1519 1518 1517 1516 1515 1514 1515 1514 1516 1517 1520 1521 1522 1523 1524 1524 1523 1517 1512 1510 1514 1515 1522 1521 1530 1534 1536 1541 1543 1546 1550 1553
1547 1544 1541 1538 1536 1533 1531 1529 1526 1524 1522 1521 1519 1518 1517 1515 1513 1512 1513 1511 1512 1514 1517 1519 1520 1521 1521 1521 1522 1519 1513 1507 1504 1509 1509 1518 1520 1529 1533 1538 1544 1547 1550 1552 1555
1546 1543 1540 1537 1534 1531 1529 1527 1525 1523 1521 1519 1518 1517 1515 1514 1513 1511 1510 1510 1511 1513 1517 1518 1519 1520 1517 1517 1518 1515 1511 1507 1513 1513 1513 1518 1525 1529 1529 1535 1542 1548 1551 1554 1554
1545 1542 1538 1535 1532 1529 1527 1525 1523 1521 1520 1518 1517 1516 1514 1513 1508 1511 1509 1509 1511 1513 1517 1517 1518 1517 1513 1514 1515 1515 1512 1514 1512 1517 1518 1517 1527 1531 1529 1540 1546 1551 1553 1555 1556
1544 1540 1537 1534 1530 1527 1525 1522 1521 1519 1518 1517 1516 1515 1513 1513 1510 1509 1509 1509 1511 1514 1516 1516 1515 1513 1510 1510 1514 1512 1512 1515 1517 1518 1519 1521 1526 1535 1543 1548 1550 1551 1554 1555 1557
1542 1538 1535 1531 1528 1525 1523 1520 1518 1517 1516 1516 1515 1514 1513 1511 1508 1508 1508 1509 1512 1514 1515 1515 1513 1513 1510 1509 1509 1511 1513 1514 1516 1517 1520 1523 1535 1534 1550 1550 1552 1554 1555 1556 1558
1539 1536 1532 1529 1525 1522 1520 1517 1516 1515 1514 1514 1514 1513 1511 1509 1507 1508 1508 1510 1512 1514 1515 1515 1515 1515 1511 1512 1513 1512 1512 1515 1516 1518 1521 1525 1532 1541 1550 1551 1553 1555 1556 1557 1559
1537 1533 1530 1526 1523 1520 1517 1514 1513 1512 1512 1512 1512 1512 1509 1505 1506 1507 1508 1510 1511 1513 1515 1514 1515 1514 1511 1512 1512 1509 1505 1507 1515 1518 1522 1521 1527 1550 1551 1551 1553 1555 1556 1559 1561
1534 1530 1527 1524 1520 1517 1514 1512 1510 1510 1510 1510 1512 1511 1506 1504 1505 1506 1508 1511 1512 1513 1514 1514 1515 1512 1512 1507 1507 1505 1503 1500 1513 1516 1518 1518 1528 1549 1551 1551 1554 1555 1557 1559 1560
1532 1528 1525 1522 1517 1515 1512 1509 1508 1508 1508 1509 1509 1513 1504 1502 1503 1504 1507 1510 1511 1512 1514 1514 1511 1506 1503 1500 1506 1501 1499 1501 1504 1513 1512 1513 1527 1546 1550 1551 1552 1554 1557 1559 1560
1529 1525 1522 1519 1515 1512 1510 1508 1510 1509 1506 1501 1500 1499 1499 1501 1501 1503 1504 1508 1509 1510 1506 1508 1505 1502 1496 1495 1493 1492 1495 1501 1503 1517 1513 1514 1537 1545 1550 1551 1552 1552 1555 1557 1560
1526 1522 1519 1516 1512 1510 1509 1509 1508 1507 1501 1496 1497 1497 1498 1499 1499 1500 1503 1505 1505 1501 1503 1506 1503 1491 1495 1496 1501 1500 1500 1506 1518 1518 1515 1523 1536 1545 1547 1549 1550 1551 1553 1556 1559
1523 1519 1516 1513 1509 1507 1507 1507 1506 1505 1501 1488 1490 1491 1494 1497 1495 1494 1499 1499 1499 1499 1499 1495 1491 1493 1497 1499 1502 1498 1497 1506 1507 1519 1519 1526 1530 1535 1543 1546 1546 1549 1551 1555 1557
1521 1517 1512 1510 1510 1507 1506 1504 1505 1504 1493 1479 1484 1484 1488 1490 1491 1491 1494 1497 1496 1495 1493 1493 1490 1495 1495 1494 1493 1499 1494 1501 1512 1512 1511 1518 1507 1518 1527 1539 1542 1544 1549 1552 1555
1518 1514 1510 1508 1506 1506 1505 1503 1504 1505 1499 1476 1479 1481 1480 1483 1480 1488 1492 1493 1491 1491 1494 1487 1490 1493 1492 1488 1488 1495 1495 1501 1506 1504 1509 1519 1515 1506 1517 1529 1530 1536 1544 1547 1553
1514 1511 1506 1504 1502 1502 1501 1502 1504 1501 1497 1471 1473 1475 1478 1478 1479 1483 1489 1492 1489 1487 1488 1485 1489 1486 1482 1488 1490 1496 1500 1502 1503 1498 1509 1496 1509 1500 1507 1509 1515 1527 1538 1545 1549
1510 1506 1502 1500 1501 1500 1499 1503 1499 1492 1472 1470 1468 1470 1470 1473 1474 1477 1482 1485 1486 1495 1491 1485 1485 1488 1489 1493 1495 1493 1498 1505 1511 1508 1510 1505 1511 1496 1501 1509 1509 1513 1530 1540 1546
1505 1500 1496 1494 1493 1496 1499 1498 1495 1472 1470 1469 1468 1467 1470 1466 1470 1473 1476 1480 1479 1478 1477 1485 1500 1486 1487 1480 1490 1491 1491 1496 1520 1512 1502 1507 1510 1497 1506 1514 1516 1518 1524 1535 1543
1501 1495 1492 1491 1491 1492 1499 1491 1479 1472 1470 1470 1467 1468 1468 1464 1467 1470 1472 1472 1473 1477 1481 1481 1483 1485 1486 1485 1482 1492 1498 1491 1502 1503 1509 1493 1498 1499 1506 1511 1515 1518 1523 1531 1539
1497 1493 1494 1489 1489 1492 1492 1484 1474 1475 1474 1471 1471 1465 1462 1463 1469 1468 1468 1466 1469 1472 1473 1474 1488 1482 1488 1488 1490 1486 1488 1504 1496 1518 1521 1497 1503 1498 1501 1504 1511 1517 1522 1529 1536
1496 1494 1493 1488 1489 1493 1482 1477 1474 1475 1477 1473 1469 1470 1465 1458 1460 1462 1461 1464 1466 1470 1474 1473 1478 1490 1487 1485 1483 1493 1492 1495 1496 1501 1509 1512 1497 1488 1496 1500 1505 1510 1518 1524 1531
1498 1491 1492 1491 1490 1482 1477 1475 1477 1473 1474 1473 1472 1470 1470 1466 1462 1457 1459 1458 1464 1466 1474 1474 1476 1484 1483 1485 1486 1481 1480 1488 1498 1508 1499 1508 1506 1492 1497 1501 1505 1507 1515 1521 1528
1502 1497 1493 1491 1482 1474 1474 1476 1475 1473 1470 1469 1469 1467 1467 1466 1468 1454 1453 1460 1464 1465 1464 1475 1477 1489 1494 1491 1489 1487 1486 1487 1493 1496 1503 1509 1499 1493 1497 1501 1504 1507 1513 1519 1526
1507 1494 1491 1491 1491 1489 1483 1473 1472 1471 1470 1469 1467 1466 1466 1464 1459 1458 1454 1463 1466 1464 1467 1469 1468 1475 1484 1477 1471 1486 1488 1488 1491 1502 1495 1492 1492 1487 1492 1496 1502 1506 1511 1517 1523
1511 1505 1506 1490 1486 1492 1487 1480 1474 1470 1469 1469 1464 1462 1462 1464 1457 1457 1452 1462 1465 1467 1468 1468 1471 1467 1464 1465 1468 1473 1478 1485 1489 1487 1495 1489 1488 1483 1487 1490 1495 1503 1509 1515 1521
1515 1516 1510 1500 1496 1491 1485 1476 1480 1478 1475 1464 1467 1468 1464 1462 1456 1452 1451 1454 1455 1465 1465 1467 1466 1467 1476 1471 1470 1476 1476 1480 1483 1483 1485 1487 1488 1484 1490 1495 1497 1502 1508 1513 1518
1519 1518 1517 1498 1492 1488 1483 1489 1484 1485 1475 1475 1476 1471 1461 1463 1467 1464 1458 1455 1456 1457 1462 1464 1466 1472 1476 1475 1477 1487 1478 1480 1479 1481 1484 1489 1482 1488 1492 1496 1499 1502 1507 1511 1516
Wind_Speed
16 15 15 15 15 15 14 13 11 10 10 8 6 6 6 7 10 12 12 9 11 13 10 8 6 7 8 10 8 7 10 10 9 8 10 7 6 6 8 14 8 7 12 14 13
17 16 16 15 15 15 15 14 12 10 9 7 5 6 7 9 10 9 7 8 10 17 11 12 10 10 12 11 9 12 12 15 1 7 8 8 7 12 9 14 17 18 15 14 13
18 17 17 16 16 15 15 14 12 11 9 6 5 6 8 9 2 3 3 8 11 13 9 10 9 11 10 10 11 13 12 4 7 9 8 7 12 8 14 11 13 17 16 13 13
19 19 18 17 16 15 15 14 13 11 9 5 6 7 8 3 1 3 1 8 13 12 8 8 11 12 10 10 10 8 8 7 6 10 8 8 14 12 3 16 17 16 15 13 12
19 20 20 19 18 16 15 14 12 11 8 6 6 7 7 5 3 3 4 8 13 10 8 10 13 10 10 9 11 11 7 8 6 6 10 13 12 15 18 17 17 17 15 14 12
21 20 20 20 19 18 16 14 12 11 7 6 6 7 6 9 4 2 5 9 10 9 8 11 7 6 6 8 10 6 5 6 5 11 13 14 20 7 10 16 16 14 14 12 11
22 22 21 21 20 19 17 15 12 10 7 7 7 8 9 8 4 4 8 9 9 8 10 6 4 8 8 8 6 8 9 9 9 13 13 20 11 9 16 15 15 14 13 12 10
23 22 22 22 21 20 17 15 11 9 8 8 7 8 6 7 8 7 8 7 9 7 5 3 4 4 7 5 7 10 9 12 10 13 12 16 14 12 14 15 13 13 12 10 10
24 23 23 22 22 21 18 14 10 8 8 9 7 5 5 6 7 9 10 6 7 6 5 6 3 6 8 12 11 9 12 10 10 5 13 15 16 15 14 13 12 11 10 9 9
25 24 23 22 22 20 18 12 7 6 7 8 10 6 8 9 7 8 12 10 7 7 7 7 8 9 11 11 12 13 7 8 12 9 10 11 14 14 14 13 13 12 11 10 9
26 25 24 23 22 21 13 6 4 3 10 11 2 5 7 5 4 9 12 12 9 11 12 12 10 12 14 14 5 2 7 8 7 2 10 8 12 12 13 13 13 13 12 12 11
26 26 24 22 21 17 3 4 4 3 9 15 18 16 11 4 6 12 14 15 11 12 8 8 13 9 4 6 9 6 8 10 6 4 9 10 9 9 13 14 14 14 14 13 13
26 26 25 22 20 8 10 7 6 6 8 9 15 16 16 14 13 16 20 18 13 12 11 14 7 5 12 11 12 10 12 12 8 10 2 9 10 13 13 12 14 15 14 13 14
25 26 25 22 10 11 8 5 3 7 5 9 8 8 14 15 12 14 21 15 9 12 12 9 4 8 11 10 15 11 6 9 12 14 5 15 4 16 16 15 17 19 17 16 15
26 24 24 21 21 10 7 9 7 2 5 6 7 5 12 24 14 15 19 14 13 11 7 7 11 12 12 12 13 10 10 11 14 6 9 15 7 10 16 17 20 22 20 18 17
27 24 24 21 18 11 12 9 3 6 6 5 7 11 15 22 10 16 15 12 9 8 10 4 1 8 3 5 5 13 12 10 7 5 10 8 7 8 11 16 18 23 21 19 18
26 24 21 18 6 5 3 6 6 8 3 7 7 10 17 15 13 16 16 17 12 12 12 8 10 6 14 12 14 11 13 8 8 7 1 4 5 7 3 2 6 20 23 22 19
25 23 19 14 11 11 6 8 10 1 10 2 2 7 15 17 16 14 17 17 17 12 11 12 11 13 8 9 11 14 9 7 4 4 3 5 5 4 6 3 5 7 21 24 21
25 21 9 9 5 12 11 13 7 10 2 5 5 10 14 16 15 17 17 18 17 14 8 9 9 7 3 4 4 10 9 5 3 1 8 1 4 10 7 5 9 9 20 23 23
25 12 4 10 5 12 10 17 14 3 4 4 9 3 13 17 15 19 18 17 16 17 14 7 8 9 6 8 5 4 10 5 7 4 6 5 6 4 8 9 9 12 18 22 22
15 6 7 7 10 9 10 17 17 8 6 4 3 4 3 8 20 16 16 8 19 17 12 5 8 9 8 10 12 6 8 1 4 4 5 6 4 6 2 1 8 12 16 21 22
9 3 5 2 7 5 10 12 5 14 12 8 5 6 8 8 12 20 20 18 13 16 16 11 7 12 15 4 3 5 5 8 6 6 3 6 10 5 5 5 5 7 14 18 20
14 5 5 1 5 6 5 10 12 13 14 12 11 6 6 7 5 16 18 9 11 15 15 10 8 8 6 5 5 9 8 5 2 2 8 8 4 8 8 8 8 10 15 18 20
8 4 1 1 2 6 7 11 8 6 12 16 16 16 16 14 10 6 14 6 11 15 3 14 11 14 11 13 14 14 12 12 10 6 9 9 12 6 9 9 9 12 16 19 21
6 4 4 4 1 10 6 6 8 5 5 8 10 15 16 15 15 13 10 7 8 8 9 8 13 15 15 6 10 13 14 14 13 12 10 12 12 10 8 6 9 13 17 19 21
7 7 9 10 9 9 3 3 8 8 5 5 7 9 9 14 12 8 11 9 8 11 11 7 9 11 10 9 10 12 11 12 12 11 12 13 15 11 4 3 10 14 17 19 21
8 5 5 7 5 5 1 5 5 10 4 5 8 12 9 6 13 14 9 2 2 6 11 10 9 12 11 10 9 9 11 12 10 8 9 11 6 4 3 6 10 13 15 17 19
Wind_Direction
4 0 358 357 357 355 353 346 335 329 326 319 310 303 300 295 289 282 268 236 213 188 180 186 187 195 197 211 215 227 246 235 191 205 132 140 154 99 101 110 81 79 100 120 122
358 354 350 349 348 348 347 347 340 328 323 315 310 314 316 311 302 265 240 209 197 198 198 194 194 189 199 207 202 220 232 236 106 206 154 143 177 141 141 122 108 100 104 111 117
356 351 345 342 340 340 340 340 341 330 320 310 312 321 323 323 275 143 199 192 168 163 179 196 197 194 205 202 194 207 243 170 204 218 181 118 122 144 144 125 139 126 122 116 114
351 349 346 340 335 333 332 331 334 329 316 301 312 324 327 301 279 171 162 173 176 166 170 182 186 196 206 200 184 213 226 214 194 174 199 170 124 87 95 106 123 123 122 118 109
348 347 344 342 334 329 325 322 324 324 308 289 306 323 337 252 215 213 198 175 172 172 193 189 188 199 200 188 184 234 163 188 182 188 200 137 125 103 104 122 124 117 113 109 103
344 344 343 339 336 329 323 315 313 312 293 276 296 315 317 246 201 175 173 175 184 187 193 179 195 214 165 179 217 159 195 162 202 176 167 139 134 114 130 137 128 122 106 101 98
341 341 341 338 334 331 323 314 307 301 279 262 280 302 283 247 206 142 131 165 189 183 173 186 183 205 167 159 159 154 149 144 143 156 159 147 147 97 145 145 132 127 115 107 101
339 339 339 335 332 332 325 314 304 289 265 252 270 295 263 230 204 165 153 152 156 175 152 189 197 215 226 123 176 195 204 177 144 164 166 201 143 146 156 152 141 131 122 113 99
337 336 336 335 329 330 326 317 302 278 250 244 267 268 244 212 205 195 180 174 164 183 192 170 204 221 191 206 188 198 195 202 147 188 163 222 120 158 172 168 154 145 136 126 113
335 334 333 333 328 328 325 314 290 268 235 240 242 257 229 188 176 185 192 176 156 154 166 202 212 214 218 214 205 184 209 185 174 172 198 192 100 151 168 174 166 157 152 145 133
334 333 333 332 327 328 326 318 288 241 221 225 217 236 159 183 180 189 189 183 192 203 211 205 228 215 202 218 353 130 208 180 89 144 210 182 145 167 169 180 180 172 167 160 148
334 331 331 331 327 328 324 293 287 306 288 248 240 239 231 209 208 186 178 192 197 210 196 205 229 232 230 203 212 216 196 124 120 173 228 169 166 177 176 186 191 186 182 169 155
334 332 330 331 327 323 322 275 237 319 259 253 227 230 219 209 218 190 187 203 205 216 208 242 93 173 186 182 202 215 208 165 133 140 199 177 208 194 186 199 193 199 190 176 168
334 332 328 332 340 324 321 203 251 309 267 168 201 220 196 191 214 200 193 197 203 224 213 235 188 199 200 211 209 181 210 170 155 188 196 206 263 194 187 200 204 198 191 184 175
334 331 323 325 312 313 263 214 313 218 273 116 150 170 180 188 143 186 191 207 217 194 202 153 187 203 210 194 208 100 154 162 173 208 167 196 256 108 176 211 207 205 196 190 186
331 328 320 318 311 305 255 231 239 232 243 164 151 177 173 202 197 152 190 213 225 212 222 266 175 219 145 135 179 131 138 159 204 224 236 130 251 179 178 229 205 202 198 197 188
330 323 317 304 277 278 188 173 214 241 100 170 187 188 191 184 178 181 185 196 192 192 199 186 173 144 160 120 150 178 179 201 213 201 265 78 249 298 101 132 270 190 194 198 191
332 324 319 293 267 220 200 214 234 229 225 75 228 197 203 186 191 187 192 196 216 225 194 190 171 169 182 209 176 198 203 280 236 235 86 154 249 94 98 116 167 201 190 191 191
335 333 327 308 271 197 201 217 229 243 298 240 238 219 201 203 205 196 204 211 197 214 222 207 149 136 180 162 194 171 223 19 293 176 262 184 144 172 163 161 173 166 175 182 188
340 341 331 313 226 177 211 235 241 235 270 238 251 244 214 200 202 197 196 208 209 206 234 205 162 191 142 153 72 253 131 188 205 262 268 164 245 297 164 169 172 176 183 184 189
352 314 346 44 141 201 227 228 237 229 257 262 233 283 285 242 202 204 201 182 205 193 205 200 250 164 175 207 186 164 183 238 340 304 289 294 337 84 139 179 177 190 186 186 188
2 287 325 190 232 227 239 228 320 266 219 256 273 274 279 278 251 219 214 212 190 181 197 199 238 180 201 91 332 287 241 188 246 176 244 302 292 116 139 171 210 172 179 183 185
332 296 320 24 261 234 229 256 243 256 249 243 242 242 298 291 253 233 217 131 180 187 193 168 202 170 184 175 183 219 194 217 226 278 265 285 302 150 168 205 202 191 177 175 179
333 304 74 273 8 319 337 265 261 214 259 265 265 264 265 264 256 256 228 168 202 209 153 195 211 225 213 218 200 202 201 203 214 239 270 244 281 232 200 219 196 188 178 176 179
356 30 350 316 129 331 302 297 291 272 241 258 259 240 250 249 249 225 210 177 183 179 187 198 212 225 243 260 201 212 199 198 216 237 253 270 289 301 290 314 189 186 175 178 180
358 351 330 289 295 288 185 243 298 331 295 267 281 345 272 245 265 260 204 204 192 182 188 199 216 200 192 181 194 209 202 205 222 248 264 276 284 287 52 244 173 178 179 182 184
3 341 314 295 302 281 52 345 317 331 269 305 341 317 283 350 312 298 307 66 340 198 189 184 168 188 189 182 178 219 217 220 232 236 259 275 331 68 180 188 180 178 185 185 184